Location: Jackson Park
(37.2862°N, 79.9123°W)
Time: 09:16:47
(UTC+00:00)

Courier 1B Rocket - All Passes

Search period start: 12 May 2026 00:00
Search period end: 22 May 2026 00:00
Orbit: 920 x 1201 km, 28.3° (Epoch: 12 May)

Date Brightness Start Highest point End Pass type
(mag) Time Alt. Az. Time Alt. Az. Time Alt. Az.
12 May - 12:25:04 10° SSE 12:26:49 11° SSE 12:28:35 10° SE daylight
12 May - 14:14:00 10° SW 14:19:16 28° SSE 14:24:47 10° ESE daylight
12 May - 16:06:05 10° WSW 16:12:04 39° S 16:18:28 10° ESE daylight
12 May - 17:59:04 10° WSW 18:05:02 33° SSW 18:11:22 10° SE daylight
12 May - 19:53:29 10° WSW 19:57:54 17° SSW 20:02:27 10° SSE daylight
13 May - 13:13:39 10° SSW 13:18:18 22° SSE 13:23:05 10° ESE daylight
13 May - 15:05:12 10° WSW 15:10:59 36° S 15:17:04 10° ESE daylight
13 May - 16:57:56 10° WSW 17:03:53 36° S 17:10:14 10° SE daylight
13 May - 18:51:39 10° WSW 18:56:46 22° SSW 19:02:08 10° SSE daylight
14 May - 12:13:40 10° SSW 12:17:22 16° SSE 12:21:06 10° ESE daylight
14 May - 14:04:25 10° SW 14:09:55 32° SSE 14:15:39 10° ESE daylight
14 May - 15:56:53 10° WSW 16:02:46 38° S 16:09:00 10° ESE daylight
14 May - 17:50:11 10° WSW 17:55:39 27° SSW 18:01:26 10° SE daylight
14 May - 19:46:16 10° SW 19:48:24 11° SSW 19:50:33 10° S daylight
15 May - 11:14:45 10° S 11:16:27 11° SSE 11:18:10 10° SE daylight
15 May - 13:03:47 10° SW 13:08:55 27° SSE 13:14:11 10° ESE daylight
15 May - 14:55:55 10° WSW 15:01:40 38° S 15:07:43 10° ESE daylight
15 May - 16:48:54 10° WSW 16:54:33 31° SSW 17:00:30 10° SE daylight
15 May - 18:43:24 10° WSW 18:47:19 16° SSW 18:51:22 10° S daylight
16 May - 12:03:22 10° SSW 12:07:58 22° SSE 12:12:36 10° ESE daylight
16 May - 13:55:01 10° WSW 14:00:37 35° S 14:06:26 10° ESE daylight
16 May - 15:47:47 10° WSW 15:53:27 34° S 15:59:26 10° SE daylight
16 May - 17:41:32 10° WSW 17:46:15 20° SSW 17:51:10 10° SSE daylight
17 May - 11:03:18 10° SSW 11:07:02 16° SSE 11:10:45 10° ESE daylight
17 May - 12:54:11 10° SW 12:59:36 32° S 13:05:07 10° ESE daylight
17 May - 14:46:43 10° WSW 14:52:23 36° S 14:58:18 10° ESE daylight
17 May - 16:40:03 10° WSW 16:45:11 25° SSW 16:50:34 10° SE daylight
17 May - 18:37:09 10° SSW 18:37:51 10° SSW 18:38:32 10° SSW daylight
18 May - 10:04:04 10° S 10:06:06 12° SSE 10:08:07 10° SE daylight
18 May - 11:53:28 10° SW 11:58:37 27° SSE 12:03:45 10° ESE daylight
18 May - 13:45:42 10° WSW 13:51:20 37° S 13:57:08 10° ESE daylight
18 May - 15:38:46 10° WSW 15:44:08 30° SSW 15:49:45 10° SE daylight
18 May - 17:33:26 10° SW 17:36:49 15° SSW 17:40:18 10° S daylight
19 May - 10:52:57 10° SSW 10:57:39 22° SSE 11:02:17 10° ESE daylight
19 May - 12:44:44 10° WSW 12:50:19 35° S 12:55:57 10° ESE daylight
19 May - 14:37:36 10° WSW 14:43:07 33° S 14:48:47 10° SE daylight
19 May - 16:31:28 10° WSW 16:35:48 19° SSW 16:40:17 10° SSE daylight
20 May - 09:52:43 10° SSW 09:56:41 17° SSE 10:00:35 10° ESE daylight
20 May - 11:43:50 10° SW 11:49:19 32° S 11:54:45 10° ESE daylight
20 May - 13:36:29 10° WSW 13:42:05 36° S 13:47:47 10° ESE daylight
20 May - 15:29:55 10° WSW 15:34:48 24° SSW 15:39:50 10° SE daylight
21 May - 08:53:09 10° S 08:55:43 12° SSE 08:58:15 10° SE visible
21 May - 10:43:01 10° SW 10:48:18 28° SSE 10:53:29 10° ESE daylight
21 May - 12:35:23 10° WSW 12:41:04 36° S 12:46:43 10° ESE daylight
21 May - 14:28:35 10° WSW 14:33:49 28° SSW 14:39:09 10° SE daylight
21 May - 16:23:31 10° SW 16:26:24 13° SSW 16:29:20 10° S daylight
